Regional Weather Roundup
Issued by NWS

Home | Current Version | Previous Version | Text Only | Print | Product List | Glossary On
Versions: 1 2 3 4 5 6 7 8 9 10 11 12 13 14 15 16 17 18 19 20 21 22 23 24 25 26 27 28 29 30 31 32 33 34 35 36 37 38 39 40 41 42 43 44 45 46 47 48 49 50
000
ASUS44 KOUN 251110
RWROK

WEATHER ROUNDUP FOR OKLAHOMA
NATIONAL WEATHER SERVICE NORMAN OK
600 AM CDT THU MAY 25 2017

NOTE: "FAIR" INDICATES FEW OR NO CLOUDS BELOW 12,000 FEET WITH NO
      SIGNIFICANT WEATHER AND/OR OBSTRUCTIONS TO VISIBILITY.

OKZ001>007-009>012-014-015-017-251200-
NORTHWEST OKLAHOMA AND THE PANHANDLE

CITY           SKY/WX    TMP DP  RH WIND       PRES   REMARKS
GAGE           PTCLDY    56  46  69 SE20G26   29.57S
GUYMON         CLEAR     49  47  93 SW5       29.55F
ENID/WOODRING  PTCLDY    50  46  87 S8        29.65S
$$

OKZ016-021>023-033>039-044-045-251200-
SOUTHWEST OKLAHOMA

CITY           SKY/WX    TMP DP  RH WIND       PRES   REMARKS
LAWTON/REGL    CLEAR     58  50  75 SE12      29.64F
LAWTON/FT SILL CLEAR     58  50  74 SE13      29.63S
FREDERICK      CLEAR     56  50  80 E10       29.59F
CLINTON        PTCLDY    56  47  71 SE14      29.61F
HOBART         PTCLDY    61  47  59 S16       29.62F
ALTUS AFB      PTCLDY    58  47  68 SE14      29.61S
$$

OKZ018>020-024>031-251200-
CENTRAL OKLAHOMA

CITY           SKY/WX    TMP DP  RH WIND       PRES   REMARKS
OKLAHOMA CITY  PTCLDY    55  46  71 SE15G23   29.67F
OKC/WILEY POST CLEAR     57  47  69 SE16      29.67F
OKC/TINKER AFB CLEAR     54  47  76 SE9       29.68S
STILLWATER     CLEAR     53  45  74 SE12      29.68F
GUTHRIE        CLEAR     54  46  74 SE10      29.67F
$$

OKZ008-013-054>072-251200-
NORTHEAST OKLAHOMA

CITY           SKY/WX    TMP DP  RH WIND       PRES   REMARKS
TULSA          PTCLDY    53  47  79 S8        29.70S
TULSA/JONES    PTCLDY    48  46  93 CALM      29.72S
PONCA CITY     CLEAR     50  44  80 SE8       29.67F
BARTLESVILLE   PTCLDY    43  41  93 CALM      29.72R
MUSKOGEE       PTCLDY    48  47  96 S5        29.74S
$$

OKZ032-040>043-046>053-073>077-251200-
SOUTH CENTRAL/SOUTHEAST OKLAHOMA

CITY           SKY/WX    TMP DP  RH WIND       PRES   REMARKS
ARDMORE/DWNTWN CLEAR     55  46  71 S6        29.70S
MCALESTER      MOCLDY    51  47  86 CALM      29.74R
$$




USA.gov is the U.S. government's official web portal to all federal, state and local government web resources and services.